(485298) = 2011 AS43

Discovered at Mount Lemmon on 2010-12-08 by Mt. Lemmon Survey.

Orbit

Orbit type: Main Belt

Note: WebGL enabled browser required.

epoch2023-02-25.0
epoch JD2460000.5
perihelion date2022-04-16.49054
perihelion JD2459685.99054
argument of perihelion (°)354.91600
ascending node (°)121.00683
inclination (°)21.95889
eccentricity0.1582190
perihelion distance (AU)2.6782432
Tisserand w.r.t. Jupiter3.1
ΔV w.r.t. Earth (km/sec)12.2
semimajor axis (AU)3.1816392
mean anomaly (°)54.62119
mean daily motion (°/day)0.17367110
aphelion distance (AU)3.685
period (years)5.68
P-vector [x]-0.44267046
P-vector [y]0.83531110
P-vector [z]0.32603409
Q-vector [x]-0.83744732
Q-vector [y]-0.51509332
Q-vector [z]0.18264956
absolute magnitude16.16
phase slope0.15
uncertainty0
referenceMPO 745323
observations used146
oppositions9
arc length (days)4543
first opposition used2010
last opposition used2023
residual rms (arc-secs)0.66
perturbers coarse indicatorM-v
perturbers precise indicator003Ek
first observation date used2010-12-08.0
last observation date used2023-05-17.0
computer nameMPCLINUX
JD of orbit computation2457815.714051
perihelion JD uncertainty (days)1.2225E-04
argument of perihelion uncertainty (°)2.6680E-05
ascending node uncertainty (°)1.0021E-05
inclination uncertainty (°)4.3849E-06
eccentricity uncertainty 4.3395E-08
perihelion distance uncertainty (AU)1.4348E-07
Minimum Orbit Intersection Distances (in AU)
for orbit epoch: 2460000.5, reference: E2023-K51
Mercury2.35635
Venus1.96159
Earth1.6946
Mars1.04047
Jupiter1.4263
Saturn6.27717
Uranus15.7199
Neptune26.4936

Observations

142 total observations over interval: 2010 12 08.43579 – 2023 05 17.284348
These data are available for download (format description).

